Location: Ferchesar
(52.6477°N, 12.4298°E)
Time: 17:08:08
(UTC+01:00)

Vanguard 3 - Pass Details

Date: 10 December 2021
Orbit: 508 x 3260 km, 33.3° (Epoch: 22 January)

Event Time Altitude Azimuth Distance (km) Brightness Sun altitude
Rises 06:37:50 0° 267° (W) 7,189 - -13.0°
Exits shadow 06:40:45 - 263° (W) 6,677 11.3 -12.6°
Reaches altitude 10° 06:43:31 10° 258° (WSW) 6,201 11.1 -12.2°
Maximum altitude 06:58:50 31° 208° (SSW) 4,274 10.8 -10.1°
Drops below altitude 10° 07:10:58 10° 154° (SSE) 4,873 12.0 -8.4°
Sets 07:14:48 0° 144° (SE) 5,504 12.7 -7.9°
